Regional Weather Roundup
Issued by NWS

Home | Current Version | Previous Version | Text Only | Print | Product List | Glossary On
Versions: 1 2 3 4 5 6 7 8 9 10 11 12 13 14 15 16 17 18 19 20 21 22 23 24 25 26 27 28 29 30 31 32 33 34 35 36 37 38 39 40 41 42 43 44 45 46 47 48 49 50
000
ASUS44 KLIX 221401
RWRLA
LOUISIANA WEATHER ROUNDUP
NATIONAL WEATHER SERVICE NEW ORLEANS LA
900 AM CDT TUE JUL 22 2014

NOTE: "FAIR" INDICATES FEW OR NO CLOUDS BELOW 12,000 FEET WITH NO
      SIGNIFICANT WEATHER AND/OR OBSTRUCTIONS TO VISIBILITY.
      SKY/WX - SKY CONDITION AND SIGNIFICANT WEATHER.
      TMP - AIR TEMPERATURE.    DP   - DEWPOINT TEMPERATURE.
      RH  - RELATIVE HUMIDITY.  PRES - PRESSURE.
      HX  - HEAT INDEX.         WCI  - WIND CHILL INDEX.

*  THESE STATIONS ARE NOT NWS OR FAA STATIONS AND ARE NOT UNDER
   NWS QUALITY CONTROL.

LAZ040-048-061>063-065-066-069-221500-
SOUTHEAST LOUISIANA

CITY           SKY/WX    TMP DP  RH WIND       PRES   REMARKS
N.O. AUDUBON     N/A     88  76  68 MISG        N/A  HX  98
N.O. INTL ARPT PTSUNNY   85  76  74 CALM      30.03S
N.O. LAKEFRONT MOSUNNY   83  76  79 CALM      30.03S
N.O. DOWNTOWN* FAIR      86  72  62 CALM      30.03S
SLIDELL        MOSUNNY   78  73  84 N5        30.03S
BATON ROUGE    SUNNY     80  72  76 CALM      30.04R
BOOTHVILLE     MOSUNNY   84  75  74 CALM      30.04S
BELLE CHASSE   PTSUNNY   85  74  69 CALM      30.02S
BOGALUSA*      FAIR      76  71  84 CALM      30.06R
GALLIANO*      NOT AVBL
NEW ROADS*     FAIR      77  73  86 CALM      30.04S
GONZALES*      FAIR      80  74  83 CALM      30.03S
HAMMOND*       MOSUNNY   79  72  78 CALM      30.05S
HOUMA*         SUNNY     82  73  74 NW7       30.03R FOG
PORT FOURCHON* SUNNY     84  77  79 CALM      30.04S

$$

LAZ041-044-053-054-221500-
SOUTHWEST LOUISIANA

CITY           SKY/WX    TMP DP  RH WIND       PRES   REMARKS
LAKE CHARLES   PTSUNNY   79  74  84 NE6       30.06R HAZE
LAFAYETTE      MOSUNNY   79  73  82 CALM      30.04S
PATTERSON      MOSUNNY   81  79  94 CALM      30.07R
SALT POINT       N/A     86  77  74 VRB3      30.02S HX  97
NEW IBERIA     MOSUNNY   82  73  74 CALM      30.05R
CHENAULT AIRPK MOSUNNY   81  72  74 E5        30.07

$$

LAZ027-028-221500-
CENTRAL LOUISIANA

CITY           SKY/WX    TMP DP  RH WIND       PRES   REMARKS
FORT POLK      SUNNY     80  70  71 E6        30.06R
ALEXANDRIA INT SUNNY     77  71  82 N3        30.05R
ALEXANDRIA     SUNNY     80  71  74 VRB3      30.06S

$$

LAZ001-002-221500-
NORTHWEST LOUISIANA

CITY           SKY/WX    TMP DP  RH WIND       PRES   REMARKS
SHREVEPORT     MOSUNNY   79  70  74 SE3       30.08S
BARKSDALE AFB  SUNNY     77  71  81 SE2       30.09R
DTN SHREVEPORT SUNNY     77  70  79 CALM      30.09R

$$

LAZ014-016-221500-
NORTHEAST LOUISIANA

CITY           SKY/WX    TMP DP  RH WIND       PRES   REMARKS
MONROE         SUNNY     79  71  76 N5        30.08R
TALLULAH       SUNNY     80  72  76 NE5       30.07R

$$



USA.gov is the U.S. government's official web portal to all federal, state and local government web resources and services.